Regional Weather Roundup
Issued by NWS Cleveland, OH

Home | Current Version | Previous Version | Graphics & Text | Print | Product List | Glossary On
Versions: 1 2 3 4 5 6 7 8 9 10 11 12 13 14 15 16 17 18 19 20 21 22 23 24 25 26 27 28 29 30 31 32 33 34 35 36 37 38 39 40 41 42 43 44 45 46 47 48 49 50
000
ASUS41 KCLE 271602
RWRCLE
OHIO REGIONAL WEATHER ROUNDUP
NATIONAL WEATHER SERVICE CLEVELAND, OH
1100 AM EST TUE JAN 27 2015

NOTE: "FAIR" INDICATES FEW OR NO CLOUDS BELOW 12,000 FEET WITH NO
SIGNIFICANT WEATHER AND/OR OBSTRUCTIONS TO VISIBILITY.

OHZ001>008-015>018-024>027-034-035-043-044-271700-
   NORTHWEST OHIO

CITY           SKY/WX    TMP DP  RH WIND       PRES   REMARKS
DEFIANCE       SUNNY     21  12  68 NE7       30.13R WCI  12
FINDLAY        SUNNY     19  11  70 N12       30.09R WCI   7
TOLEDO EXPRESS SUNNY     20  11  68 N5        30.12R WCI  13
TOLEDO EXEC    SUNNY     20  11  68 N6        30.12R WCI  12
LIMA           SUNNY     17  11  77 N8        30.09R WCI   7
$$

OHZ009>014-019>023-028>033-038-089-271700-
   NORTHEAST OHIO

CITY           SKY/WX    TMP DP  RH WIND       PRES   REMARKS
CLE-HOPKINS    LGT SNOW  19  13  77 N10       30.08R WCI   7
CLE-LAKEFRONT  LGT SNOW  20  14  77 N8        30.07R WCI  10
CUY CO. ARPT   FLURRIES  19  16  86 NE13      30.05R WCI   7
LORAIN-ELYRIA  LGT SNOW  18  14  84 N13       30.07R FOG     WCI   5
ASHTABULA      LGT SNOW  19  14  81 N8        30.02R WCI   9
AKRON-CANTON   FLURRIES  19  11  70 N12       29.99R WCI   7
WOOSTER        CLOUDY    19  13  77 N14       30.02R WCI   6
MANSFIELD      LGT SNOW  17  12  80 NW13      30.02R WCI   4
YOUNGSTOWN     FLURRIES  19  13  77 NW13      29.97R WCI   6
$$

OHZ042-051>053-060>062-070>072-077>081-271700-
  SOUTHWEST OHIO

CITY           SKY/WX    TMP DP  RH WIND       PRES   REMARKS
CINC-COVINGTON CLOUDY    22  12  65 NE6       30.08R WCI  14
CINC-LUNKEN    CLOUDY    22  13  68 NE6       30.12R WCI  14
HAMILTON       PTSUNNY   22  13  68 CALM      30.11R
DAYTON         MOSUNNY   20  12  71 N7        30.08R WCI  11
WRIGHT-PAT AFB MOSUNNY   18  12  77 NE3       30.09R
DAYTON GENERAL MOSUNNY   21  13  71 E3        30.07R
WILMINGTON     CLOUDY    19  12  74 N6        30.05R WCI  11
$$

OHZ036-037-039>041-045>050-054>059-063>069-073>076-082>088-271700-
  CENTRAL AND SOUTHEAST OHIO

CITY           SKY/WX    TMP DP  RH WIND       PRES   REMARKS
COLUMBUS       PTSUNNY   19  11  70 N7        30.06R WCI  10
OSU AIRPORT    CLOUDY    16  11  80 NW9       30.07R WCI   4
BOLTON FIELD   CLOUDY    16  12  86 NW8       30.07R WCI   5
RICKENBACK AFB NOT AVBL
NEWARK         FLURRIES  21  13  71 N10       30.04R WCI  10
MARION         CLOUDY    15   9  76 N7        30.06S HAZE    WCI   5
LANCASTER      PTSUNNY   19  13  77 N5        30.06R WCI  12
ZANESVILLE     PTSUNNY   19  12  74 NW9       30.02R WCI   8
NEW PHILLY     CLOUDY    22  13  68 NW6       30.02R WCI  14
$$



USA.gov is the U.S. government's official web portal to all federal, state and local government web resources and services.